| time (UTC) | temp C | wind direction | speed KPH | gust KPH | rain 1hr cm | rain 24hr cm | rain mn cm | humidity % | barometer mb |
| 20260504160303 | 12 | 85 | 24.1 | 29.0 | 0.00 | 0.00 | 0.00 | 41 | 1005.8 |
| 20260504150728 | 12 | 73 | 19.3 | 22.5 | 0.00 | 0.00 | 0.00 | 41 | 1005.5 |
| 20260504150225 | 12 | 100 | 19.3 | 24.1 | 0.00 | 0.00 | 0.00 | 41 | 1005.5 |
| 20260504141154 | 12 | 304 | 3.2 | 6.4 | 0.00 | 0.00 | 0.00 | 39 | 1005.2 |
| 20260504140651 | 12 | 280 | 3.2 | 9.7 | 0.00 | 0.00 | 0.00 | 42 | 1005.4 |
| 20260504140146 | 11 | 347 | 9.7 | 14.5 | 0.00 | 0.00 | 0.00 | 43 | 1005.4 |
| 20260504130615 | 8 | 340 | 6.4 | 11.3 | 0.00 | 0.00 | 0.00 | 47 | 1004.7 |
| 20260504130112 | 8 | 288 | 12.9 | 20.9 | 0.00 | 0.00 | 0.00 | 47 | 1004.6 |
| 20260504110503 | 7 | 300 | 14.5 | 22.5 | 0.00 | 0.00 | 0.00 | 46 | 1004.0 |
| 20260504100425 | 6 | 316 | 20.9 | 24.1 | 0.00 | 0.00 | 0.00 | 50 | 1004.0 |
| 20260504081818 | 7 | 296 | 14.5 | 17.7 | 0.00 | 0.00 | 0.00 | 50 | 1004.6 |
| 20260504081314 | 7 | 287 | 16.1 | 17.7 | 0.00 | 0.00 | 0.00 | 49 | 1004.7 |
| 20260504080810 | 8 | 312 | 8.0 | 12.9 | 0.00 | 0.00 | 0.00 | 49 | 1004.7 |
| 20260504080308 | 8 | 313 | 9.7 | 16.1 | 0.00 | 0.00 | 0.00 | 48 | 1004.7 |
| 20260504070235 | 10 | 294 | 16.1 | 17.7 | 0.00 | 0.00 | 0.00 | 44 | 1005.1 |
| 20260504060155 | 10 | 347 | 12.9 | 16.1 | 0.00 | 0.00 | 0.00 | 54 | 1005.4 |
| 20260504050623 | 10 | 246 | 6.4 | 11.3 | 0.00 | 0.00 | 0.00 | 47 | 1005.9 |
| 20260504050121 | 10 | 296 | 11.3 | 14.5 | 0.00 | 0.00 | 0.00 | 46 | 1005.8 |
| 20260504045618 | 10 | 286 | 9.7 | 12.9 | 0.00 | 0.00 | 0.00 | 46 | 1005.9 |
| 20260504045112 | 10 | 235 | 4.8 | 11.3 | 0.00 | 0.00 | 0.00 | 48 | 1006.0 |
| 20260504044610 | 11 | 298 | 11.3 | 12.9 | 0.00 | 0.00 | 0.00 | 46 | 1005.9 |
| 20260504044107 | 11 | 300 | 11.3 | 14.5 | 0.00 | 0.00 | 0.00 | 45 | 1006.0 |
| 20260504043604 | 11 | 278 | 12.9 | 14.5 | 0.00 | 0.00 | 0.00 | 43 | 1005.9 |
| 20260504043101 | 13 | 285 | 6.4 | 6.4 | 0.00 | 0.00 | 0.00 | 39 | 1006.1 |
| 20260504042558 | 13 | 278 | 6.4 | 6.4 | 0.00 | 0.00 | 0.00 | 38 | 1006.0 |
| 20260504042055 | 14 | 295 | 4.8 | 4.8 | 0.00 | 0.00 | 0.00 | 37 | 1005.9 |
| 20260504041551 | 13 | 284 | 4.8 | 4.8 | 0.00 | 0.00 | 0.00 | 38 | 1005.9 |
| 20260504041047 | 13 | 272 | 4.8 | 4.8 | 0.00 | 0.00 | 0.00 | 39 | 1006.0 |
| 20260504040545 | 12 | 278 | 4.8 | 6.4 | 0.00 | 0.00 | 0.00 | 40 | 1005.7 |
| 20260504040041 | 13 | 277 | 3.2 | 4.8 | 0.00 | 0.00 | 0.00 | 39 | 1005.8 |
| 20260504035538 | 13 | 308 | 3.2 | 3.2 | 0.00 | 0.00 | 0.00 | 40 | 1005.9 |
| 20260504035034 | 14 | 342 | 3.2 | 3.2 | 0.00 | 0.00 | 0.00 | 37 | 1005.8 |
| 20260504034533 | 14 | 347 | 3.2 | 4.8 | 0.00 | 0.00 | 0.00 | 37 | 1005.7 |
| 20260504034029 | 13 | 336 | 4.8 | 4.8 | 0.00 | 0.00 | 0.00 | 39 | 1005.7 |
| 20260504033528 | 14 | 345 | 3.2 | 4.8 | 0.00 | 0.00 | 0.00 | 38 | 1006.0 |
| 20260504033024 | 14 | 359 | 3.2 | 4.8 | 0.00 | 0.00 | 0.00 | 37 | 1005.7 |
| 20260504032521 | 14 | 351 | 3.2 | 3.2 | 0.00 | 0.00 | 0.00 | 37 | 1005.8 |
| 20260504032018 | 15 | 357 | 4.8 | 4.8 | 0.00 | 0.00 | 0.00 | 36 | 1005.5 |
| 20260504031515 | 14 | 349 | 4.8 | 4.8 | 0.00 | 0.00 | 0.00 | 36 | 1005.5 |
| 20260504031011 | 14 | 352 | 3.2 | 3.2 | 0.00 | 0.00 | 0.00 | 37 | 1005.4 |
| 20260504030509 | 14 | 353 | 0.0 | 0.0 | 0.00 | 0.00 | 0.00 | 37 | 1005.5 |
| 20260504030004 | 14 | 6 | 0.0 | 1.6 | 0.00 | 0.00 | 0.00 | 39 | 1005.5 |
| 20260504025501 | 14 | 3 | 1.6 | 4.8 | 0.00 | 0.00 | 0.00 | 39 | 1005.4 |
| 20260504024958 | 14 | 14 | 6.4 | 6.4 | 0.00 | 0.00 | 0.00 | 40 | 1005.0 |
| 20260504024455 | 15 | 1 | 8.0 | 9.7 | 0.00 | 0.00 | 0.00 | 38 | 1005.0 |
| 20260504023952 | 15 | 2 | 6.4 | 11.3 | 0.00 | 0.00 | 0.00 | 37 | 1005.1 |
| 20260504023449 | 15 | 32 | 9.7 | 11.3 | 0.00 | 0.00 | 0.00 | 36 | 1005.1 |
| 20260504022944 | 15 | 23 | 6.4 | 11.3 | 0.00 | 0.00 | 0.00 | 37 | 1005.1 |
| 20260504022441 | 15 | 29 | 8.0 | 12.9 | 0.00 | 0.00 | 0.00 | 37 | 1005.0 |
| 20260504021937 | 15 | 44 | 8.0 | 11.3 | 0.00 | 0.00 | 0.00 | 36 | 1005.1 |
| 20260504021435 | 16 | 31 | 9.7 | 14.5 | 0.00 | 0.00 | 0.00 | 36 | 1004.8 |
| 20260504020932 | 16 | 25 | 9.7 | 16.1 | 0.00 | 0.00 | 0.00 | 35 | 1005.0 |
| 20260504020428 | 16 | 43 | 11.3 | 16.1 | 0.00 | 0.00 | 0.00 | 36 | 1005.0 |
| 20260504015925 | 16 | 48 | 11.3 | 14.5 | 0.00 | 0.00 | 0.00 | 35 | 1005.0 |
| 20260504015421 | 16 | 12 | 12.9 | 14.5 | 0.00 | 0.00 | 0.00 | 35 | 1004.8 |
| 20260504014917 | 17 | 40 | 12.9 | 16.1 | 0.00 | 0.00 | 0.00 | 34 | 1004.8 |
| 20260504014414 | 17 | 17 | 14.5 | 20.9 | 0.00 | 0.00 | 0.00 | 32 | 1004.7 |
| 20260504013910 | 17 | 18 | 11.3 | 14.5 | 0.00 | 0.00 | 0.00 | 34 | 1005.0 |
| 20260504013409 | 17 | 26 | 11.3 | 17.7 | 0.00 | 0.00 | 0.00 | 33 | 1004.6 |
| 20260504012905 | 18 | 48 | 14.5 | 16.1 | 0.00 | 0.00 | 0.00 | 32 | 1004.6 |
| 20260504012403 | 18 | 17 | 14.5 | 17.7 | 0.00 | 0.00 | 0.00 | 31 | 1004.6 |
| 20260504011900 | 18 | 18 | 14.5 | 20.9 | 0.00 | 0.00 | 0.00 | 31 | 1004.7 |
| 20260504011357 | 18 | 39 | 16.1 | 17.7 | 0.00 | 0.00 | 0.00 | 31 | 1005.0 |
| 20260504010852 | 19 | 39 | 11.3 | 16.1 | 0.00 | 0.00 | 0.00 | 31 | 1004.8 |
| 20260504010348 | 19 | 42 | 19.3 | 24.1 | 0.00 | 0.00 | 0.00 | 29 | 1004.8 |
| 20260504005845 | 19 | 23 | 22.5 | 30.6 | 0.00 | 0.00 | 0.00 | 29 | 1004.7 |
| 20260504005342 | 19 | 14 | 22.5 | 37.0 | 0.00 | 0.00 | 0.00 | 25 | 1005.0 |
| 20260504004839 | 21 | 3 | 14.5 | 17.7 | 0.00 | 0.00 | 0.00 | 20 | 1004.7 |
| 20260504004337 | 21 | 3 | 6.4 | 9.7 | 0.00 | 0.00 | 0.00 | 21 | 1004.8 |
| 20260504003833 | 21 | 7 | 4.8 | 6.4 | 0.00 | 0.00 | 0.00 | 19 | 1004.6 |
| 20260504003330 | 21 | 326 | 4.8 | 9.7 | 0.00 | 0.00 | 0.00 | 19 | 1005.1 |
| 20260504002827 | 21 | 341 | 4.8 | 11.3 | 0.00 | 0.00 | 0.00 | 17 | 1004.7 |
| 20260504002324 | 20 | 326 | 3.2 | 14.5 | 0.00 | 0.00 | 0.00 | 20 | 1004.7 |
| 20260504001821 | 20 | 0 | 8.0 | 11.3 | 0.00 | 0.00 | 0.00 | 18 | 1004.8 |
| 20260504001318 | 20 | 9 | 9.7 | 12.9 | 0.00 | 0.00 | 0.00 | 22 | 1005.1 |
| 20260504000815 | 20 | 354 | 11.3 | 16.1 | 0.00 | 0.00 | 0.00 | 20 | 1005.1 |
| 20260504000312 | 20 | 18 | 12.9 | 17.7 | 0.00 | 0.00 | 0.00 | 21 | 1005.1 |
| 20260503235810 | 20 | 25 | 12.9 | 17.7 | 0.00 | 0.00 | 0.00 | 21 | 1004.8 |
| 20260503235307 | 21 | 354 | 16.1 | 33.8 | 0.00 | 0.00 | 0.00 | 19 | 1004.8 |
| 20260503234804 | 21 | 348 | 14.5 | 17.7 | 0.00 | 0.00 | 0.00 | 22 | 1005.0 |
| 20260503234257 | 20 | 355 | 19.3 | 22.5 | 0.00 | 0.00 | 0.00 | 25 | 1004.8 |
| 20260503233754 | 21 | 19 | 12.9 | 30.6 | 0.00 | 0.00 | 0.00 | 22 | 1005.1 |
| 20260503233249 | 22 | 10 | 9.7 | 14.5 | 0.00 | 0.00 | 0.00 | 18 | 1004.8 |
| 20260503232747 | 22 | 310 | 4.8 | 9.7 | 0.00 | 0.00 | 0.00 | 19 | 1004.8 |
| 20260503232244 | 21 | 358 | 4.8 | 11.3 | 0.00 | 0.00 | 0.00 | 20 | 1005.0 |
| 20260503231742 | 21 | 22 | 6.4 | 11.3 | 0.00 | 0.00 | 0.00 | 20 | 1005.1 |
| 20260503231239 | 20 | 21 | 6.4 | 14.5 | 0.00 | 0.00 | 0.00 | 22 | 1005.1 |
| 20260503230734 | 20 | 3 | 9.7 | 11.3 | 0.00 | 0.00 | 0.00 | 22 | 1005.2 |
| 20260503230231 | 20 | 339 | 9.7 | 14.5 | 0.00 | 0.00 | 0.00 | 18 | 1005.2 |
| 20260503225724 | 20 | 30 | 9.7 | 17.7 | 0.00 | 0.00 | 0.00 | 21 | 1005.2 |
| 20260503225224 | 20 | 5 | 17.7 | 25.7 | 0.00 | 0.00 | 0.00 | 21 | 1005.4 |
| 20260503224721 | 20 | 351 | 8.0 | 30.6 | 0.00 | 0.00 | 0.00 | 18 | 1005.2 |
| 20260503224219 | 20 | 321 | 12.9 | 16.1 | 0.00 | 0.00 | 0.00 | 17 | 1005.3 |
| 20260503223716 | 21 | 271 | 11.3 | 20.9 | 0.00 | 0.00 | 0.00 | 17 | 1005.3 |
| 20260503223213 | 21 | 334 | 3.2 | 17.7 | 0.00 | 0.00 | 0.00 | 18 | 1005.2 |
| 20260503222710 | 21 | 334 | 9.7 | 12.9 | 0.00 | 0.00 | 0.00 | 19 | 1005.4 |
| 20260503222208 | 22 | 10 | 4.8 | 11.3 | 0.00 | 0.00 | 0.00 | 17 | 1005.4 |
| 20260503221706 | 21 | 334 | 0.0 | 4.8 | 0.00 | 0.00 | 0.00 | 19 | 1005.5 |
| 20260503221203 | 21 | 21 | 1.6 | 6.4 | 0.00 | 0.00 | 0.00 | 19 | 1005.3 |
| 20260503220700 | 22 | 338 | 0.0 | 3.2 | 0.00 | 0.00 | 0.00 | 17 | 1006.0 |
| 20260503220156 | 20 | 14 | 1.6 | 9.7 | 0.00 | 0.00 | 0.00 | 19 | 1005.8 |
| 20260503215653 | 20 | 326 | 3.2 | 6.4 | 0.00 | 0.00 | 0.00 | 20 | 1006.1 |
| 20260503215149 | 20 | 24 | 3.2 | 6.4 | 0.00 | 0.00 | 0.00 | 22 | 1006.0 |
| 20260503214648 | 20 | 356 | 6.4 | 6.4 | 0.00 | 0.00 | 0.00 | 21 | 1006.1 |
| 20260503214143 | 20 | 20 | 6.4 | 9.7 | 0.00 | 0.00 | 0.00 | 21 | 1006.5 |
| 20260503213638 | 20 | 358 | 9.7 | 12.9 | 0.00 | 0.00 | 0.00 | 24 | 1006.5 |
| 20260503213134 | 20 | 344 | 3.2 | 12.9 | 0.00 | 0.00 | 0.00 | 22 | 1006.4 |
| 20260503212631 | 19 | 22 | 11.3 | 17.7 | 0.00 | 0.00 | 0.00 | 22 | 1006.4 |
| 20260503212129 | 20 | 21 | 12.9 | 14.5 | 0.00 | 0.00 | 0.00 | 23 | 1006.4 |
| 20260503211626 | 20 | 2 | 9.7 | 11.3 | 0.00 | 0.00 | 0.00 | 21 | 1006.4 |
| 20260503211121 | 20 | 4 | 8.0 | 11.3 | 0.00 | 0.00 | 0.00 | 21 | 1006.5 |
| 20260503210618 | 20 | 40 | 12.9 | 12.9 | 0.00 | 0.00 | 0.00 | 21 | 1006.6 |
| 20260503210115 | 20 | 23 | 9.7 | 14.5 | 0.00 | 0.00 | 0.00 | 21 | 1006.6 |
| 20260503205611 | 21 | 29 | 11.3 | 12.9 | 0.00 | 0.00 | 0.00 | 21 | 1007.1 |
| 20260503205107 | 19 | 84 | 3.2 | 16.1 | 0.00 | 0.00 | 0.00 | 23 | 1007.0 |
| 20260503204604 | 19 | 33 | 14.5 | 20.9 | 0.00 | 0.00 | 0.00 | 25 | 1007.0 |
| 20260503204101 | 18 | 13 | 8.0 | 12.9 | 0.00 | 0.00 | 0.00 | 26 | 1007.3 |
| 20260503203558 | 18 | 75 | 9.7 | 12.9 | 0.00 | 0.00 | 0.00 | 24 | 1007.3 |
| 20260503203055 | 19 | 57 | 9.7 | 22.5 | 0.00 | 0.00 | 0.00 | 27 | 1007.0 |
| 20260503202553 | 19 | 31 | 16.1 | 22.5 | 0.00 | 0.00 | 0.00 | 26 | 1007.0 |
| 20260503202051 | 18 | 19 | 6.4 | 14.5 | 0.00 | 0.00 | 0.00 | 26 | 1007.1 |
| 20260503201549 | 20 | 43 | 11.3 | 12.9 | 0.00 | 0.00 | 0.00 | 23 | 1007.4 |
| 20260503201046 | 20 | 9 | 6.4 | 11.3 | 0.00 | 0.00 | 0.00 | 20 | 1007.3 |
| 20260503200542 | 21 | 220 | 6.4 | 17.7 | 0.00 | 0.00 | 0.00 | 20 | 1007.4 |
| 20260503200038 | 20 | 289 | 6.4 | 16.1 | 0.00 | 0.00 | 0.00 | 22 | 1007.3 |
| 20260503195535 | 22 | 50 | 1.6 | 4.8 | 0.00 | 0.00 | 0.00 | 20 | 1007.4 |
| 20260503195027 | 21 | 203 | 6.4 | 11.3 | 0.00 | 0.00 | 0.00 | 21 | 1007.7 |
| 20260503194525 | 20 | 289 | 3.2 | 12.9 | 0.00 | 0.00 | 0.00 | 22 | 1007.5 |
| 20260503194024 | 21 | 114 | 6.4 | 11.3 | 0.00 | 0.00 | 0.00 | 22 | 1008.0 |
| 20260503193521 | 21 | 170 | 14.5 | 17.7 | 0.00 | 0.00 | 0.00 | 21 | 1007.7 |
| 20260503193017 | 21 | 304 | 1.6 | 4.8 | 0.00 | 0.00 | 0.00 | 21 | 1007.7 |
| 20260503192513 | 20 | 125 | 6.4 | 6.4 | 0.00 | 0.00 | 0.00 | 22 | 1007.8 |
| 20260503192009 | 20 | 355 | 3.2 | 11.3 | 0.00 | 0.00 | 0.00 | 23 | 1008.0 |
| 20260503191506 | 20 | 159 | 6.4 | 11.3 | 0.00 | 0.00 | 0.00 | 24 | 1008.4 |
| 20260503191003 | 21 | 231 | 6.4 | 12.9 | 0.00 | 0.00 | 0.00 | 24 | 1008.2 |
| 20260503190459 | 20 | 207 | 3.2 | 11.3 | 0.00 | 0.00 | 0.00 | 24 | 1008.4 |
| 20260503185956 | 20 | 335 | 0.0 | 4.8 | 0.00 | 0.00 | 0.00 | 26 | 1008.6 |
| 20260503185452 | 20 | 337 | 1.6 | 4.8 | 0.00 | 0.00 | 0.00 | 26 | 1008.7 |
| 20260503184952 | 19 | 138 | 6.4 | 9.7 | 0.00 | 0.00 | 0.00 | 25 | 1008.9 |
| 20260503184448 | 20 | 107 | 8.0 | 9.7 | 0.00 | 0.00 | 0.00 | 27 | 1008.8 |
| 20260503183945 | 18 | 158 | 6.4 | 14.5 | 0.00 | 0.00 | 0.00 | 27 | 1009.1 |
| 20260503183441 | 18 | 45 | 6.4 | 12.9 | 0.00 | 0.00 | 0.00 | 29 | 1009.3 |
| 20260503182938 | 19 | 3 | 4.8 | 12.9 | 0.00 | 0.00 | 0.00 | 29 | 1009.3 |
| 20260503182437 | 18 | 62 | 6.4 | 6.4 | 0.00 | 0.00 | 0.00 | 29 | 1009.3 |
| 20260503181934 | 18 | 24 | 0.0 | 9.7 | 0.00 | 0.00 | 0.00 | 28 | 1009.4 |
| 20260503181431 | 19 | 26 | 6.4 | 6.4 | 0.00 | 0.00 | 0.00 | 29 | 1009.7 |
| 20260503180927 | 17 | 293 | 0.0 | 0.0 | 0.00 | 0.00 | 0.00 | 30 | 1009.7 |
| 20260503180426 | 17 | 32 | 8.0 | 11.3 | 0.00 | 0.00 | 0.00 | 30 | 1009.7 |
| 20260503175922 | 17 | 39 | 8.0 | 12.9 | 0.00 | 0.00 | 0.00 | 32 | 1009.7 |
| 20260503175420 | 18 | 65 | 6.4 | 9.7 | 0.00 | 0.00 | 0.00 | 31 | 1010.0 |
| 20260503174915 | 18 | 119 | 9.7 | 9.7 | 0.00 | 0.00 | 0.00 | 30 | 1010.2 |
| 20260503174414 | 18 | 263 | 1.6 | 4.8 | 0.00 | 0.00 | 0.00 | 30 | 1010.0 |
| 20260503173909 | 17 | 356 | 4.8 | 6.4 | 0.00 | 0.00 | 0.00 | 33 | 1010.2 |
| 20260503173405 | 16 | 34 | 3.2 | 3.2 | 0.00 | 0.00 | 0.00 | 34 | 1010.4 |
| 20260503172902 | 16 | 30 | 6.4 | 9.7 | 0.00 | 0.00 | 0.00 | 34 | 1010.4 |
| 20260503172400 | 16 | 31 | 3.2 | 3.2 | 0.00 | 0.00 | 0.00 | 34 | 1010.5 |
| 20260503171856 | 16 | 31 | 3.2 | 4.8 | 0.00 | 0.00 | 0.00 | 34 | 1010.2 |
| 20260503171353 | 16 | 1 | 6.4 | 6.4 | 0.00 | 0.00 | 0.00 | 35 | 1010.5 |
| 20260503170850 | 16 | 345 | 1.6 | 3.2 | 0.00 | 0.00 | 0.00 | 33 | 1010.9 |
| 20260503170346 | 15 | 28 | 6.4 | 9.7 | 0.00 | 0.00 | 0.00 | 35 | 1010.7 |